OPS 4682 DEB, 20048

Orbit data source: Space-Track

OPS 4682 DEB, 20048 is space debris in LEO originally from a launch on Sat, 03 Apr 1965 UTC launched from the Air Force Western Test Range (AFWTR). Debris objects in space refer to the collection of defunct objects orbiting the Earth. Examples of debris include non-operational satellites, rocket bodies, and fragments generated from explosions, collisions, or faulty payload assembly.

Loading next visibility...
Identifier
20048, 1965-027BC
Orbit
LEO
Country
Flag of USUS
Related business
Manufacturer
Unknown
Mission
Spacecraft
Bus & Motor
Unknown
Mass
Unknown
Launch date (UTC)
1965-04-03 (61 years ago)
Launch vehicle
Unknown
Launch site
Air Force Western Test Range (AFWTR)
Object type
Payload
Rocket body
Debris
Shape & HBR
Unknown shape, 0.1 m
Radar Cross Section
Small (<0.1 m²)

Expand to show TLE details & history
Last TLE update: 3 days ago

TLE from 3 days ago
0 OPS 4682 DEB
1 20048U 65027BC  25291.41801586 -.00000468  00000-0 -15468-2 0  9992
2 20048  90.2561 348.7667 0032232 154.4185 226.9413 13.01431109584917
Epoch: 2025-10-18T10:01Z
TLE epoch observation values (Epoch: 2025-10-18T10:01:56.570Z)
Latitude
21.09678°
Longitude
171.03336°
Altitude
1,275.921 km
Speed
7.212 km/s
True Right ascension
23h 14m 40s
True Declination
20° 59' 22"
Sunlit
Object was in full shadow at epoch
Visualization orbit readout
Latitude
Unknown
Longitude
Unknown
Altitude
Unknown
Speed
Unknown
Apparent Right ascension
Unknown
Apparent Declination
Unknown
Sunlit
N/A
Visualization observer readout
Local Sidereal Time
03:26:44
Azimuth
Unknown
Elevation
Unknown
Doppler factor
Unknown
Orbital elements
Apogee altitude
1,278.208 km
Perigee altitude
1,229.011 km
Semi-major axis
7,631.746 km
Eccentricity
0.00322
Inclination
90.2561°
RAAN
348.7667°
Arg. of periapsis
154.4185°
True anomaly
226.67217°
Mean anomaly
226.9413°
Eccentric anomaly
226.80666°
Mean motion
3.25542 °/min
Orbital period
110.58 mins
BSTAR
-0.0015468
Loading maneuver chart data...
Computing Atmospheric mass density...
Loading historical data...
Loading historical data...
Loading historical data...
Loading historical data...
Loading historical data...
Loading historical data...
Loading historical data...

Documentation

Showing up to 5 results
|